#timestamp,LO_Frequency,Hit,StdDev 
1541595615.9,286047002.6,N
1541595635.7,286047002.6,N
1541595655.6,286046999.7,N
1541595675.4,286047000.9,N
1541595695.2,286047000.3,N
1541595715.1,286047000.0,N
1541595716.0,286047000.0,N
1541595735.8,286046999.7,N
1541595755.7,286047010.8,Y
1541595775.5,286047008.0,P
1541595795.3,286047008.7,N
1541595815.2,286047007.0,N
1541595835.0,286047007.5,N
1541595835.9,286047007.5,N
1541595855.7,286047005.4,N
1541595875.6,286047003.0,N
1541595895.4,286047003.5,N
1541595915.3,286047004.8,N
1541595935.1,286047006.9,N
1541595936.0,286047006.9,N
1541595955.8,286047008.0,Y
1541595975.7,286047003.6,P
1541595995.5,286047006.3,P
1541596015.4,286047012.3,P
1541596035.2,286047011.1,Y
1541596055.0,286047002.3,P
1541596055.9,286047002.3,N
1541596075.8,286047000.7,N
1541596095.6,286047000.5,N
1541596115.4,286047002.8,N
1541596135.3,286046996.5,N
1541596155.1,286046995.0,N
1541596175.9,286046995.5,N
1541596195.7,286046994.8,N
1541596215.5,286046992.3,N
1541596235.4,286046992.4,N
1541596255.2,286046992.9,N
1541596275.0,286046991.2,N
1541596275.9,286046991.2,N
1541596295.8,286046989.8,N
1541596315.6,286046988.4,N
1541596335.5,286046988.1,N
1541596355.3,286046987.2,N
1541596375.1,286046987.3,N
1541596395.9,286046987.6,N
1541596415.7,286046988.2,N
1541596435.5,286046986.9,N
1541596455.4,286046986.9,N
1541596475.2,286046989.2,N
1541596495.1,286046987.4,N
1541596496.0,286046987.4,N
1541596515.8,286046987.0,N
1541596535.6,286046994.3,N
1541596555.5,286046993.8,N
1541596575.3,286046996.4,N
1541596595.2,286046992.9,N
1541596615.9,286046992.8,N
1541596635.7,286046991.4,N
1541596655.6,286046990.5,N
1541596675.4,286046992.4,N
1541596695.2,286046990.6,Y
1541596715.1,286047000.7,P
1541596716.0,286047000.7,N
1541596735.8,286046998.3,N
1541596755.7,286046999.4,N
1541596775.5,286046997.0,N
1541596795.3,286046995.4,N
1541596815.2,286046995.2,N
1541596835.0,286047000.4,N
1541596835.9,286047000.4,N
1541596855.8,286047002.7,N
1541596875.6,286047001.1,N
1541596895.4,286046998.9,N
1541596915.3,286046997.9,N
1541596935.1,286046993.6,N
1541596955.8,286046994.8,N
1541596975.7,286046991.8,N
1541596995.5,286046992.5,N
1541597015.4,286046991.8,N
1541597035.2,286046991.7,N
1541597055.0,286046992.1,N
1541597055.9,286046992.1,N
1541597075.8,286046991.7,N
1541597095.6,286046991.8,N
1541597115.4,286046992.0,N
1541597135.3,286046992.9,N
1541597155.1,286046994.1,N
1541597175.9,286046994.2,N
1541597195.7,286046993.9,N
1541597215.5,286046993.7,N
1541597235.4,286046995.0,N
1541597255.2,286046997.7,N
1541597275.0,286046997.5,N
1541597275.9,286046997.5,N
1541597295.8,286046995.7,N
1541597315.6,286046995.7,N
1541597335.5,286046996.2,N
1541597355.3,286046993.5,N
1541597375.1,286046994.5,N
1541597395.9,286046993.9,N
1541597415.7,286046995.9,N
1541597435.5,286046997.6,N
1541597455.4,286046998.6,N
1541597475.2,286046999.4,N
1541597495.0,286046999.1,N
1541597496.0,286046999.1,N
1541597515.8,286047001.0,N
1541597535.6,286047004.0,N
1541597555.5,286047003.7,N
1541597575.3,286047005.5,N
1541597595.1,286047007.0,N
1541597615.9,286047006.9,N
1541597635.7,286047007.0,N
1541597655.5,286047008.3,N
1541597675.4,286047005.0,N
1541597695.2,286047008.4,N
1541597715.1,286047010.7,N
1541597716.0,286047010.7,N
1541597735.8,286047010.5,N
1541597755.6,286047010.6,N
1541597775.5,286047009.6,N
1541597795.3,286047013.1,N
1541597815.1,286047017.0,N
1541597835.9,286047015.0,N
1541597855.7,286047013.5,N
1541597875.6,286047010.3,N
1541597895.4,286047008.3,N
1541597915.2,286047009.0,N
1541597935.1,286047007.6,N
1541597936.0,286047007.6,N
1541597955.8,286047007.2,N
1541597975.6,286047006.0,N
1541597995.5,286047005.3,N
1541598015.3,286047005.6,N
1541598035.2,286047001.4,N
1541598055.9,286047003.9,N
1541598075.7,286047005.7,N
1541598095.6,286047007.2,N
1541598115.4,286047008.4,N
1541598135.2,286047009.8,N
1541598155.1,286047011.0,Y
1541598156.0,286047011.0,P
1541598175.8,286047007.4,P
1541598195.7,286047004.9,P
1541598215.5,286047009.8,Y
1541598235.3,286047006.0,P
1541598255.2,286047005.3,P
1541598275.0,286047004.5,P
1541598275.9,286047004.5,Y
1541598295.8,286047000.5,P
1541598315.6,286047002.3,N
1541598335.4,286047001.3,N
1541598355.3,286047003.4,N
1541598375.1,286047005.8,Y
1541598395.8,286047002.4,P
1541598415.7,286047002.1,P
1541598435.5,286047005.9,P
1541598455.4,286047001.8,N
1541598475.2,286047000.8,N
1541598495.0,286047001.2,N
1541598495.9,286047001.2,N
1541598515.8,286046998.8,N
1541598535.6,286046998.9,N
1541598555.4,286047002.6,N
1541598575.3,286047003.5,N
1541598595.1,286047003.2,N
1541598615.9,286047004.4,N
1541598635.7,286047001.7,N
1541598655.5,286047001.7,N
1541598675.4,286047003.2,N
1541598695.2,286047007.3,Y
1541598715.0,286047007.5,P
1541598715.9,286047007.5,N
1541598735.8,286047002.9,N
1541598755.6,286047003.7,N
1541598775.5,286047001.5,N
1541598795.3,286047000.2,N
1541598815.1,286047004.4,N
1541598835.9,286047004.2,N
1541598855.7,286047002.9,N
1541598875.5,286047003.3,N
1541598895.4,286047003.1,N
1541598915.2,286047005.8,N
1541598935.1,286047005.8,N
1541598936.0,286047005.8,N
1541598955.8,286047003.1,N
1541598975.6,286047003.8,N
1541598995.5,286047003.6,N
1541599015.3,286047002.2,N
1541599035.1,286047001.4,N
1541599055.9,286047001.6,N
1541599075.7,286047002.3,N
1541599095.6,286047000.7,N
1541599115.4,286047000.1,N
1541599135.2,286047002.2,N
1541599155.1,286047002.4,N
1541599156.0,286047002.4,N
1541599175.8,286047001.9,N
1541599195.6,286047001.5,N
